User: anonymous   Login
Location: Unspecified
(0.0000°N, 0.0000°E)
Time: 06:11:31
(UTC+00:00)
Language:

OBJECT E - Orbit

View from above orbital plane
View from above orbital plane
View from above satellite
View from above satellite

Ground track
Ground track

The orbit data is extracted from the following two-line orbital elements,

1 43666U 18083E   20223.82164227  .00000943  00000-0  49133-4 0  9996
2 43666  97.4855 249.7443 0015363 164.9733   8.7976 15.18349650 98869
Epoch (UTC): 10 August 2020 19:43:09
Eccentricity: 0.0015363
inclination: 97.4855°
perigee height: 500 km
apogee height: 521 km
right ascension of ascending node: 249.7443°
argument of perigee: 164.9733°
revolutions per day: 15.18349650
mean anomaly at epoch: 8.7976°
orbit number at epoch: 9886

The dashed part of the orbit path shows where the satellite is in the earth's shadow,  

DLR